EW9490 Weather Reports


time (UTC)temp
C
wind
direction
speed
KPH
gust
KPH
rain 1hr
cm
rain 24hr
cm
rain mn
cm
humidity
%
barometer
mb
20260510153059 16 305 0.0 1.6 0.08 0.13 0.08 88 1014.3
20260510151600 15 278 0.0 3.2 0.08 0.13 0.08 89 1014.3
20260510151555 15 279 0.0 3.2 0.08 0.13 0.08 89 1014.3
20260510150046 15 296 0.0 4.8 0.05 0.10 0.05 88 1014.2
20260510144546 15 296 0.0 0.0 0.05 0.10 0.05 85 1013.9
20260510143056 16 267 0.0 4.8 0.00 0.05 0.00 81 1014.1
20260510141539 17 309 8.0 17.7 0.00 0.05 0.00 76 1014.7
20260510140036 18 264 0.0 6.4 0.00 0.05 0.00 70 1013.6
20260510134532 17 213 0.0 11.3 0.00 0.05 0.00 74 1013.6
20260510133026 17 262 3.2 9.7 0.00 0.05 0.00 75 1013.6
20260510131528 16 232 1.6 8.0 0.00 0.08 0.00 77 1013.4
20260510130020 16 255 3.2 6.4 0.00 0.08 0.00 78 1013.4
20260510124524 16 240 0.0 4.8 0.00 0.08 0.00 80 1013.1
20260510123011 15 217 0.0 3.2 0.00 0.08 0.00 84 1013.3
20260510121514 15 213 0.0 0.0 0.00 0.10 0.00 86 1013.0
20260510120003 14 213 0.0 3.2 0.00 0.10 0.00 87 1012.8
20260510114501 13 213 0.0 0.0 0.00 0.10 0.00 90 1012.7
20260510113028 13 213 0.0 0.0 0.00 0.10 0.00 92 1012.2
20260510111528 12 213 0.0 0.0 0.00 0.15 0.00 94 1012.0
20260510110027 11 213 0.0 0.0 0.00 0.15 0.00 94 1011.8
20260510104523 11 213 0.0 4.8 0.00 0.15 0.00 94 1011.5
20260510103026 11 213 0.0 0.0 0.00 0.15 0.00 94 1011.5
20260510101519 11 213 0.0 0.0 0.00 0.20 0.00 94 1011.1
20260510100028 11 213 0.0 1.6 0.00 0.20 0.00 94 1010.9
20260510094516 11 213 0.0 0.0 0.00 0.20 0.00 93 1010.7
20260510093011 11 213 0.0 0.0 0.00 0.20 0.00 93 1010.5
20260510091509 11 213 0.0 0.0 0.00 0.20 0.00 92 1010.2
20260510090046 11 213 0.0 0.0 0.00 0.20 0.00 92 1010.2
20260510084546 11 213 0.0 0.0 0.00 0.20 0.00 91 1010.1
20260510083032 11 213 0.0 0.0 0.00 0.20 0.00 90 1010.3
20260510081543 12 213 0.0 0.0 0.00 0.28 0.00 90 1010.2
20260510080030 12 213 0.0 0.0 0.00 0.28 0.00 89 1009.9
20260510074524 12 213 0.0 0.0 0.00 0.28 0.00 87 1009.8
20260510073018 13 213 0.0 0.0 0.00 0.28 0.00 85 1009.9
20260510071521 14 213 0.0 0.0 0.00 0.28 0.28 82 1009.9
20260510070016 15 213 0.0 4.8 0.00 0.28 0.28 79 1009.8
20260510064519 15 221 0.0 3.2 0.00 0.28 0.28 78 1009.8
20260510063013 15 219 0.0 3.2 0.00 0.28 0.28 77 1009.7
20260510061513 16 237 0.0 6.4 0.00 0.28 0.28 76 1009.7
20260510060012 16 184 4.8 12.9 0.00 0.28 0.28 75 1009.4
20260510054512 16 275 0.0 11.3 0.00 0.28 0.28 75 1009.7
20260510053009 16 225 0.0 8.0 0.00 0.28 0.28 75 1009.8
20260510051509 16 224 4.8 14.5 0.00 0.28 0.28 75 1009.8
20260510050008 17 158 4.8 9.7 0.00 0.28 0.28 74 1009.9
20260510044508 17 228 0.0 16.1 0.00 0.28 0.28 73 1010.0
20260510043005 17 267 1.6 11.3 0.00 0.28 0.28 73 1009.8
20260510041504 17 213 6.4 16.1 0.00 0.28 0.28 73 1009.8
20260510040003 17 211 3.2 16.1 0.00 0.28 0.28 73 1009.8
20260510034503 17 205 0.0 20.9 0.00 0.28 0.28 73 1009.7
20260510033138 17 271 3.2 12.9 0.00 0.28 0.28 73 1009.7
20260510031623 17 211 4.8 17.7 0.00 0.28 0.28 73 1009.7
20260510030103 17 199 3.2 12.9 0.00 0.28 0.28 73 1009.5
20260510024558 17 223 0.0 9.7 0.00 0.28 0.28 72 1009.3
20260510023058 17 197 0.0 8.0 0.00 0.28 0.28 72 1009.2
20260510021531 17 244 0.0 6.4 0.00 0.28 0.28 71 1009.1
20260510020026 17 208 0.0 9.7 0.00 0.28 0.28 70 1008.7
20260510014555 17 194 0.0 6.4 0.00 0.28 0.28 70 1008.6
20260510013055 17 201 3.2 9.7 0.00 0.28 0.28 69 1008.4
20260510011553 17 156 3.2 8.0 0.00 0.28 0.28 69 1008.3
20260510010055 17 197 0.0 4.8 0.00 0.28 0.28 69 1008.0
20260510004551 18 180 0.0 0.0 0.00 0.28 0.28 68 1007.7
20260510003052 19 181 0.0 0.0 0.00 0.28 0.28 64 1007.7
20260510001549 20 195 1.6 9.7 0.00 0.28 0.28 61 1007.5
20260510000103 21 201 3.2 9.7 0.00 0.28 0.28 57 1007.4
20260509234557 21 222 0.0 14.5 0.00 0.28 0.28 56 1007.2
20260509233050 21 209 8.0 17.7 0.00 0.28 0.28 54 1007.1
20260509231546 22 213 4.8 16.1 0.00 0.28 0.28 54 1007.1
20260509230042 22 215 1.6 16.1 0.00 0.28 0.28 54 1007.0
20260509224540 22 226 0.0 12.9 0.00 0.28 0.28 54 1007.1
20260509223041 22 213 4.8 17.7 0.00 0.28 0.28 54 1007.4
20260509221505 21 245 4.8 19.3 0.00 0.28 0.28 53 1007.4
20260509220005 22 220 6.4 12.9 0.00 0.28 0.28 52 1007.6
20260509214534 21 211 8.0 24.1 0.00 0.28 0.28 54 1007.7
20260509213035 21 229 8.0 19.3 0.00 0.28 0.28 53 1007.7
20260509211603 21 263 6.4 17.7 0.00 0.28 0.28 53 1007.7
20260509210106 21 234 1.6 19.3 0.00 0.28 0.28 56 1007.7
20260509204557 21 255 1.6 14.5 0.00 0.28 0.28 57 1007.8
20260509203055 21 234 1.6 17.7 0.00 0.28 0.28 57 1007.8
20260509201551 21 268 4.8 11.3 0.00 0.28 0.28 58 1007.7
20260509200103 20 217 1.6 9.7 0.00 0.28 0.28 59 1008.0
20260509194545 20 229 0.0 12.9 0.00 0.28 0.28 59 1008.3
20260509193044 20 241 4.8 17.7 0.00 0.28 0.28 58 1008.3
20260509191543 20 185 6.4 16.1 0.00 0.28 0.28 57 1008.4
20260509190040 20 249 4.8 19.3 0.00 0.28 0.28 62 1008.4
20260509184550 20 269 4.8 17.7 0.00 0.28 0.28 60 1008.4
20260509183033 19 231 9.7 22.5 0.00 0.28 0.28 61 1008.3
20260509181528 18 252 0.0 17.7 0.00 0.28 0.28 64 1008.4
20260509180025 18 262 8.0 22.5 0.00 0.28 0.28 63 1008.7
20260509174558 18 188 8.0 19.3 0.00 0.28 0.28 62 1008.6
20260509173102 17 154 12.9 24.1 0.00 0.28 0.28 66 1008.5
20260509171545 16 169 8.0 24.1 0.00 0.28 0.28 72 1008.6
20260509170041 15 175 9.7 19.3 0.00 0.28 0.28 80 1008.6
20260509164536 13 187 11.3 24.1 0.00 0.28 0.28 85 1008.7
20260509163038 13 171 3.2 12.9 0.05 0.28 0.28 88 1008.9
20260509161533 13 180 6.4 0.0 0.00 0.00 0.28 90 1008.9
20260509160034 13 176 6.4 17.7 0.05 0.28 0.28 91 1008.9
20260509154529 13 158 8.0 16.1 0.05 0.28 0.28 93 1008.9